N3TCR-13 Weather Reports


time (UTC)temp
C
wind
direction
speed
KPH
gust
KPH
rain 1hr
cm
rain 24hr
cm
rain mn
cm
humidity
%
barometer
mb
20260505153017 26 48 4.8 14.5 0.00 0.00 0.00 30 996.0
20260505151516 26 42 3.2 12.9 0.00 0.00 0.00 30 995.9
20260505124518 20 34 3.2 9.7 0.00 0.00 0.00 52 996.8
20260505123018 18 44 3.2 6.4 0.00 0.00 0.00 56 996.8
20260505121518 17 59 3.2 8.0 0.00 0.00 0.00 60 996.8
20260505120018 17 45 3.2 6.4 0.00 0.00 0.00 65 996.7
20260505114518 16 58 3.2 9.7 0.00 0.00 0.00 68 996.5
20260505113017 16 68 3.2 9.7 0.00 0.00 0.00 73 996.4
20260505111517 15 82 3.2 9.7 0.00 0.00 0.00 79 996.3
20260505101517 14 52 3.2 9.7 0.00 0.00 0.00 85 995.7
20260505100016 15 51 3.2 9.7 0.00 0.00 0.00 83 995.6
20260505094516 15 48 3.2 11.3 0.00 0.00 0.00 81 995.5
20260505093016 15 62 3.2 9.7 0.00 0.00 0.00 80 995.5
20260505091517 15 61 3.2 12.9 0.00 0.00 0.00 80 995.4
20260505090036 15 69 3.2 9.7 0.00 0.00 0.00 80 995.3
20260505084517 15 70 4.8 12.9 0.00 0.00 0.00 80 995.3
20260505083023 15 53 3.2 9.7 0.00 0.00 0.00 78 995.3
20260505081517 16 75 3.2 8.0 0.00 0.00 0.00 75 995.3
20260505080017 16 62 3.2 11.3 0.00 0.00 0.00 72 995.2
20260505074518 16 77 3.2 8.0 0.00 0.00 0.00 69 995.0
20260505073018 17 75 3.2 8.0 0.00 0.00 0.00 67 994.9
20260505071518 17 64 3.2 12.9 0.00 0.00 0.00 66 995.0
20260505070018 17 84 3.2 8.0 0.00 0.00 0.00 64 995.0
20260505064518 17 73 3.2 11.3 0.00 0.00 0.00 63 995.1
20260505063038 17 75 3.2 9.7 0.00 0.00 0.00 65 995.1
20260505061538 16 71 3.2 9.7 0.00 0.00 0.00 68 995.1
20260505060018 16 59 1.6 3.2 0.00 0.00 0.00 67 995.1
20260505054518 16 85 1.6 4.8 0.00 0.00 0.00 66 995.1
20260505053018 17 86 1.6 6.4 0.00 0.00 0.00 66 995.2
20260505051518 17 78 3.2 8.0 0.00 0.00 0.00 65 995.3
20260505041516 17 57 3.2 9.7 0.00 0.00 0.00 55 995.0
20260505040017 17 59 3.2 8.0 0.00 0.00 0.00 54 994.8
20260505034517 17 59 3.2 9.7 0.00 0.00 0.00 52 994.9
20260505033017 17 45 3.2 8.0 0.00 0.00 0.00 51 994.9
20260505031517 17 53 1.6 4.8 0.00 0.00 0.00 50 995.0
20260505030017 18 54 1.6 4.8 0.00 0.00 0.00 49 995.0
20260505024517 18 74 3.2 9.7 0.00 0.00 0.00 48 995.0
20260505023018 18 44 3.2 8.0 0.00 0.00 0.00 47 994.9
20260505021517 18 54 1.6 8.0 0.00 0.00 0.00 46 994.7
20260505020017 19 74 1.6 8.0 0.00 0.00 0.00 44 994.6
20260505014517 19 57 3.2 8.0 0.00 0.00 0.00 43 994.5
20260505013017 20 49 3.2 6.4 0.00 0.00 0.00 41 994.3
20260505011517 20 72 3.2 9.7 0.00 0.00 0.00 40 994.1
20260505010018 20 65 3.2 12.9 0.00 0.00 0.00 39 993.9
20260505004517 20 61 4.8 11.3 0.00 0.00 0.00 37 993.8
20260505003017 20 74 3.2 11.3 0.00 0.00 0.00 36 993.7
20260505001519 21 67 3.2 9.7 0.00 0.00 0.00 35 993.6
20260505000017 21 55 4.8 11.3 0.00 0.00 0.00 34 993.5
20260504234536 21 62 3.2 9.7 0.00 0.00 0.00 33 993.4
20260504233016 21 46 3.2 9.7 0.00 0.00 0.00 32 993.3
20260504231557 22 77 3.2 9.7 0.00 0.00 0.00 31 993.4
20260504230017 22 64 4.8 12.9 0.00 0.00 0.00 29 993.3
20260504224516 22 66 4.8 12.9 0.00 0.00 0.00 28 993.3
20260504223037 23 58 3.2 14.5 0.00 0.00 0.00 27 993.2
20260504221517 23 62 3.2 11.3 0.00 0.00 0.00 27 993.2
20260504220017 23 62 4.8 14.5 0.00 0.00 0.00 27 993.3
20260504214517 23 71 4.8 16.1 0.00 0.00 0.00 27 993.3
20260504213017 23 63 4.8 12.9 0.00 0.00 0.00 26 993.4
20260504211517 23 50 3.2 11.3 0.00 0.00 0.00 27 993.4
20260504210017 23 61 4.8 19.3 0.00 0.00 0.00 26 993.5
20260504204517 23 38 3.2 11.3 0.00 0.00 0.00 27 993.5
20260504203017 23 55 4.8 16.1 0.00 0.00 0.00 27 993.6
20260504201517 23 53 4.8 12.9 0.00 0.00 0.00 26 993.9
20260504200037 23 70 3.2 11.3 0.00 0.00 0.00 28 994.1
20260504194517 23 61 3.2 11.3 0.00 0.00 0.00 28 994.3
20260504193018 23 47 3.2 11.3 0.00 0.00 0.00 29 994.6
20260504191517 23 63 3.2 12.9 0.00 0.00 0.00 29 994.9
20260504190017 23 42 3.2 12.9 0.00 0.00 0.00 29 995.1
20260504184517 23 48 4.8 11.3 0.00 0.00 0.00 29 995.3
20260504183016 22 65 3.2 11.3 0.00 0.00 0.00 30 995.5
20260504181537 22 73 4.8 12.9 0.00 0.00 0.00 30 995.7
20260504180016 22 46 4.8 12.9 0.00 0.00 0.00 29 995.9
20260504174517 22 47 3.2 12.9 0.00 0.00 0.00 30 995.9
20260504173017 22 41 3.2 14.5 0.00 0.00 0.00 31 996.1
20260504171516 21 61 3.2 8.0 0.00 0.00 0.00 31 996.2